Starlink 6075

operational
NORAD ID: 56102 Int'l Des: 2023-046 Owner: SPXS Country: US Constellation: starlink
LEOCIRCULAR

Über Starlink 6075

Beschreibung wird geladen...

Live-Position

3D-Globus wird geladen...

Nächste Überflüge

Höhenverlauf

Altitude vs Time

uPlot chart will show altitude changes over time

Zweizeiliger Elementsatz

1 56102U 23046K 25352.06532963 -.00000732 00000-0 -39143-4 0 9998
2 56102 43.0022 242.4698 0001021 271.8283 88.2442 15.02534260149782
Epoch: 18. Dez. 2025 • Age: 21 hours

Aktueller Status

Höhe 562.8 km
Geschwindigkeit 7.59 km/s
Subsatellitenpunkt 42.58°N, 89.79°W
Startdatum 29. März 2023
Alter 2.7 years
Typ internet

Technische Details

Klassifizierung Payload
Masse 305.00 kg
Trockenmasse 290.00 kg
Gesamtmasse 305.00 kg
Länge 0.20 m
Durchmesser 2.80 m
Spannweite 9.00 m
Form Box + pan
Hersteller SPXS
Bus-Typ Starlink
Phasenstatus In Orbit
Besitzer/Staat SPXS/US

Große Konstellationen

Loading constellations...